Theta_e
302 302 301 301 300 300 300 300 300 301 301 303 304 305 305 306 307 311 318 324 319 312 315 313 313 311 311 311 307 315 311 312 311 306 304 305 304 306 305 309 308 306 302 301 304 301 297 314 313 304 313 320 320 318
303 302 302 301 301 300 300 301 301 301 301 302 303 304 304 305 305 306 313 319 320 314 314 319 319 320 319 318 315 316 313 314 316 309 307 307 304 307 308 301 312 304 310 306 307 304 318 317 316 318 321 319 319 319
302 303 302 302 302 301 301 301 301 301 301 301 302 303 303 304 304 304 311 313 311 307 307 308 308 317 320 319 322 311 311 316 319 323 315 313 307 309 303 304 308 310 313 309 310 312 312 315 317 319 319 319 322 320
302 303 303 303 302 302 302 302 302 301 301 301 302 302 302 303 303 303 311 313 311 309 302 307 315 310 316 319 319 319 318 321 320 315 310 309 306 313 307 309 307 310 312 309 310 313 314 315 318 319 319 320 321 321
302 303 304 303 303 302 302 302 302 302 301 301 302 303 302 302 303 306 311 315 316 310 303 304 310 311 311 313 314 316 317 316 312 308 306 304 308 308 309 309 307 312 310 307 306 314 317 317 321 320 319 319 320 319
303 303 302 303 304 303 303 303 302 301 301 301 302 303 303 302 304 309 304 311 317 314 305 298 309 309 310 310 310 314 315 314 311 308 307 309 314 309 304 302 309 311 314 315 311 318 318 320 320 319 317 317 318 317
302 302 302 303 303 303 302 302 302 302 302 301 301 302 303 303 305 303 303 308 306 312 304 299 300 306 310 311 310 308 311 310 310 308 307 308 308 309 305 301 308 309 311 312 314 314 312 313 311 315 315 316 315 317
302 302 302 303 303 302 302 302 303 302 302 301 302 302 303 302 302 302 308 305 306 309 307 300 301 304 310 306 305 310 306 307 306 305 306 304 307 307 301 307 309 310 310 311 312 314 313 314 315 316 317 318 316 316
301 302 302 303 303 303 303 303 303 302 302 301 302 302 303 302 300 305 306 306 313 309 302 300 297 296 309 309 312 310 310 304 309 304 304 304 301 299 304 307 309 310 311 311 312 313 313 313 313 314 316 316 314 315
300 301 301 302 303 303 303 303 304 302 302 301 302 300 296 303 305 306 304 301 302 303 303 299 303 301 303 304 303 304 307 303 299 304 308 303 301 308 308 310 312 312 313 314 311 311 313 313 314 315 316 317 317 317
300 300 301 302 302 302 302 302 303 302 300 299 297 298 304 304 305 302 296 295 297 293 298 297 300 299 304 300 300 304 300 302 297 301 301 301 301 307 312 310 313 312 314 314 314 314 315 315 315 315 316 318 319 319
300 300 300 301 302 302 302 303 303 301 300 299 302 304 304 300 297 292 293 294 293 291 297 296 297 299 302 305 299 299 295 298 293 307 300 297 305 311 309 309 310 311 312 312 312 312 313 315 316 316 317 318 320 320
300 300 300 301 301 301 302 303 303 301 301 303 300 296 297 296 289 286 285 289 291 296 298 298 295 297 301 300 298 298 293 293 303 297 296 300 309 309 309 311 309 310 311 311 311 312 312 313 316 317 316 319 320 319
299 299 300 300 301 302 303 303 301 301 300 294 292 287 289 287 289 291 292 294 300 301 299 299 299 298 301 297 299 293 296 298 293 291 293 301 307 308 309 309 307 308 309 309 310 311 311 312 314 317 317 319 319 319
299 299 299 300 301 302 302 302 301 302 299 292 292 285 288 293 295 296 298 299 302 302 300 298 299 299 297 295 297 296 293 291 293 294 299 307 309 308 308 307 307 307 307 308 310 311 312 314 314 316 318 319 319 319
299 299 298 301 301 302 302 302 301 302 298 294 291 289 292 291 291 294 295 295 300 298 300 299 295 293 293 295 293 292 290 290 296 300 305 308 307 307 307 306 306 306 307 308 310 312 313 314 315 316 317 318 318 317
298 298 299 299 300 301 300 299 298 292 293 287 290 294 293 292 291 293 295 296 301 296 292 295 290 290 296 292 290 295 293 297 302 305 305 308 306 307 306 305 305 304 304 308 310 311 313 314 316 315 314 316 316 316
298 300 299 299 299 297 297 298 294 292 286 291 289 291 292 293 292 294 297 298 296 295 295 292 297 291 290 289 291 296 299 301 304 306 308 307 308 308 307 306 306 305 305 305 308 309 312 312 311 313 313 314 310 308
300 300 301 300 300 297 294 294 296 287 290 293 293 294 294 294 295 296 296 297 297 298 296 294 290 289 291 295 295 297 300 303 301 305 305 307 308 308 307 307 306 306 306 305 307 308 310 311 311 311 311 310 306 306
300 301 301 300 300 296 290 293 298 291 289 292 294 292 293 293 295 295 296 296 296 295 291 290 290 292 293 296 298 299 299 301 302 300 301 304 305 305 304 303 303 305 305 305 305 301 310 310 310 311 309 304 303 303
299 300 300 300 299 299 294 292 292 292 292 291 293 293 292 295 293 293 293 296 293 291 289 292 293 295 298 298 298 299 299 300 300 300 300 299 302 301 301 301 302 302 303 303 303 306 304 308 310 307 304 305 304 305
296 297 297 300 295 294 293 295 291 293 291 292 292 293 291 291 292 294 296 293 292 293 295 295 296 297 297 298 298 300 300 300 300 299 294 296 297 297 298 300 300 300 302 303 305 309 310 307 307 307 306 306 306 308
298 297 296 295 289 289 288 295 287 289 287 290 292 289 290 292 294 297 292 294 295 298 298 298 299 300 299 300 300 300 300 300 298 299 299 300 300 300 300 300 301 300 302 304 309 311 307 299 303 306 307 306 306 304
297 294 289 288 289 286 290 286 289 288 290 288 288 286 289 291 295 292 290 293 296 299 298 300 299 298 299 300 298 299 300 300 299 299 300 300 299 300 301 300 302 303 304 306 312 310 307 306 301 306 307 306 304 303
289 287 288 285 289 285 283 285 285 285 284 288 287 287 288 293 289 288 289 293 296 297 299 302 301 301 299 298 298 300 303 301 299 298 300 301 300 301 300 301 303 304 305 312 311 307 306 307 306 305 306 306 306 308
282 288 285 287 287 286 287 283 285 286 288 287 288 291 292 289 286 286 291 295 297 300 299 298 296 295 295 298 300 300 301 302 301 299 300 301 301 300 299 300 301 303 314 314 309 304 304 305 305 304 305 305 295 306
282 286 291 295 292 291 289 289 291 289 286 285 289 287 289 284 285 291 297 297 294 295 296 296 296 293 293 297 301 303 305 305 303 302 303 303 303 304 303 301 301 306 317 313 310 308 305 306 307 306 305 308 309 308
289 290 286 290 290 291 287 287 286 286 288 293 292 286 284 286 287 294 293 295 295 295 296 296 296 295 294 295 298 302 305 306 307 305 304 304 305 305 306 306 310 299 314 314 312 310 309 309 310 309 309 309 308 310
288 292 292 288 289 289 289 290 289 291 294 293 288 288 288 292 294 293 295 296 295 293 291 291 293 297 299 300 304 306 307 304 301 299 299 299 300 303 308 312 315 315 314 309 292 299 309 311 311 311 312 310 311 310
289 294 289 288 286 286 291 293 293 296 297 297 295 293 292 293 296 300 296 293 290 290 294 298 301 303 303 301 302 305 306 305 304 302 300 300 303 308 311 314 314 313 311 309 308 308 290 304 301 311 309 310 309 308
294 293 289 289 288 294 296 299 301 300 299 297 297 292 289 289 292 295 293 292 293 295 297 296 304 307 307 305 304 305 305 311 311 312 312 312 315 315 314 314 313 312 309 310 308 308 310 309 310 310 309 308 306 304
292 290 289 287 292 298 299 299 299 296 297 295 292 292 291 289 286 290 294 293 292 293 292 295 298 305 308 307 306 304 293 309 308 308 309 312 312 312 312 312 311 310 309 309 311 310 310 310 309 309 308 307 306 306
290 291 292 290 291 294 298 298 296 293 294 292 292 291 289 288 285 288 294 295 294 294 294 297 301 306 306 305 304 301 296 299 292 286 287 289 294 299 307 308 309 309 309 309 309 309 310 309 309 308 308 307 306 304
Wind_Speed
12 12 11 10 9 7 6 4 3 3 4 7 9 11 13 15 17 9 5 4 6 5 7 2 2 5 4 7 9 6 4 8 7 11 12 11 13 14 14 13 12 13 2 5 15 13 13 10 7 3 10 10 7 8
13 13 11 11 10 7 6 5 3 3 4 6 8 10 12 14 16 13 2 1 4 6 7 4 5 6 7 8 7 4 4 3 6 6 9 10 13 12 11 12 12 11 10 9 11 8 1 3 7 9 6 11 12 9
12 13 13 12 10 8 8 6 4 3 3 4 6 8 10 13 16 13 4 4 4 5 7 7 5 8 4 6 4 6 5 6 2 5 7 6 7 8 12 11 13 14 11 13 12 13 15 12 15 8 11 10 10 6
9 11 13 13 12 10 9 9 6 3 2 4 5 6 8 10 13 12 5 4 5 5 6 7 3 6 3 5 7 9 6 2 5 6 6 7 9 8 9 12 14 13 4 5 17 14 16 13 12 18 11 4 9 7
10 10 12 12 12 10 8 6 7 3 3 4 5 5 7 10 12 9 4 2 3 7 5 5 2 7 6 7 8 8 7 7 7 8 7 8 9 10 10 11 12 12 12 10 12 11 8 11 10 10 12 10 11 15
9 9 8 8 10 10 10 8 6 4 3 3 4 5 7 10 12 7 5 4 0 2 6 4 6 6 6 6 8 7 6 6 8 9 8 9 12 6 7 11 11 11 12 14 14 14 14 13 13 17 17 17 19 18
9 9 9 9 10 9 8 8 7 6 4 3 3 5 6 9 10 4 7 6 7 6 5 5 5 8 6 5 7 7 8 7 6 7 9 10 9 7 10 13 14 15 15 14 15 16 17 18 18 19 19 20 18 18
10 10 10 10 10 10 9 8 7 6 4 3 3 6 7 9 11 5 5 2 5 6 4 5 3 5 8 7 6 6 6 7 6 6 6 8 8 10 10 11 11 10 10 13 13 14 15 16 16 16 17 17 19 17
6 10 8 9 9 10 10 8 7 5 4 3 4 6 5 5 4 5 3 4 4 5 5 4 6 5 7 6 1 5 5 7 6 8 10 8 10 8 7 10 10 7 10 14 18 18 17 18 18 17 18 19 20 20
7 10 10 8 9 9 8 8 8 6 4 3 5 5 4 4 4 2 3 4 4 5 5 6 7 2 5 7 7 5 5 7 6 9 8 12 12 14 12 11 4 8 9 10 12 12 12 14 14 16 18 18 19 19
10 8 9 10 9 9 8 6 8 7 3 4 4 2 6 3 4 3 4 4 5 4 5 6 7 4 4 5 5 3 2 4 6 7 7 5 10 4 5 2 2 5 7 8 10 12 13 15 15 17 18 19 18 18
11 10 7 10 11 9 10 8 11 6 1 3 3 1 4 4 4 4 4 5 5 6 6 7 5 5 4 2 4 3 4 4 6 3 5 9 4 8 5 2 2 5 7 9 12 13 13 15 15 16 17 18 18 16
11 9 6 8 10 10 8 12 11 1 4 3 3 5 4 3 4 6 8 6 6 5 5 5 5 4 3 5 4 4 7 7 3 5 5 5 9 6 4 1 4 6 8 10 13 14 15 16 18 14 17 16 16 13
10 10 11 9 11 11 11 12 8 4 5 4 4 2 5 5 7 7 8 5 4 2 7 7 6 4 2 6 5 6 6 5 7 6 6 9 9 7 2 3 6 9 11 12 14 15 17 17 16 16 16 13 13 12
10 7 4 7 8 10 13 11 7 5 3 4 3 6 8 7 3 4 5 2 0 3 3 4 4 5 6 5 6 6 6 7 6 7 8 9 7 4 3 4 7 9 11 12 14 15 17 18 16 16 16 12 12 9
8 8 4 9 7 14 11 9 6 4 3 3 4 4 5 3 6 5 4 4 3 3 3 4 4 5 8 6 8 10 7 5 6 9 8 9 6 4 3 5 6 8 11 12 13 16 16 18 18 16 16 11 10 7
10 4 10 9 8 11 5 2 2 3 3 2 5 5 6 5 6 5 5 5 4 5 7 3 4 8 5 7 12 7 10 5 7 4 3 8 4 0 3 5 7 10 12 13 13 16 17 17 16 12 13 6 5 2
1 12 14 10 11 6 2 3 3 4 3 7 6 5 6 6 6 4 5 4 4 8 8 6 2 6 6 9 8 8 7 7 3 5 1 7 2 6 7 6 9 10 13 14 13 15 15 13 13 9 7 1 7 11
5 11 17 18 8 4 2 5 3 4 7 4 6 5 4 4 6 7 7 6 7 8 5 5 8 8 11 10 11 8 6 6 5 0 6 5 10 9 8 7 10 10 13 16 12 10 12 9 8 6 3 4 4 5
9 14 15 10 5 2 4 2 2 4 4 1 4 6 6 7 7 9 9 9 8 9 9 11 13 12 10 9 10 11 11 11 6 7 8 8 8 8 9 9 8 12 14 14 10 6 8 9 6 5 2 3 4 6
5 5 6 4 3 2 2 2 2 3 5 4 5 5 6 6 9 9 10 9 11 13 14 14 15 13 15 13 12 11 13 13 13 11 11 12 10 10 12 12 12 13 10 11 10 8 5 7 7 2 5 6 6 5
3 4 1 2 2 2 3 1 2 1 4 6 8 7 8 9 10 11 11 13 15 13 13 14 14 14 15 17 15 17 16 17 16 13 12 12 13 14 14 14 12 10 11 12 10 8 7 4 3 3 5 7 5 5
6 3 3 3 2 2 3 1 3 4 5 4 4 5 6 8 9 9 10 10 12 13 14 15 17 19 19 20 20 19 17 18 14 14 13 12 13 13 12 14 13 11 11 11 5 5 3 1 2 5 5 3 4 6
4 4 4 3 4 2 0 3 3 4 5 5 4 7 12 11 10 11 12 12 11 11 12 15 13 14 15 19 16 15 15 15 15 14 13 13 12 12 13 13 10 9 11 6 4 3 5 4 3 2 5 6 6 8
2 2 4 4 3 4 4 5 6 5 8 9 10 10 7 5 8 12 17 13 10 8 7 9 9 9 10 10 11 12 15 13 12 13 13 13 12 12 13 11 10 10 8 2 4 7 6 5 3 2 6 11 14 9
2 6 5 5 6 7 5 5 4 5 7 8 7 4 4 4 5 8 6 6 7 8 6 5 5 6 8 10 13 11 11 9 10 12 13 12 12 12 12 11 11 10 6 6 8 9 8 6 6 6 6 9 6 7
4 6 7 5 6 6 5 7 10 8 9 5 5 4 4 5 7 3 6 5 5 7 7 7 8 7 9 12 13 12 12 10 9 13 11 11 11 10 11 11 11 6 11 11 11 10 11 11 9 9 9 8 9 9
5 5 8 7 6 6 9 9 8 8 3 2 1 3 4 5 5 5 3 6 8 8 9 8 8 9 10 10 12 13 13 12 15 10 8 8 9 10 12 10 2 10 8 11 11 10 10 11 13 14 14 10 9 7
5 4 6 10 11 7 6 4 5 5 4 1 3 4 4 3 4 5 8 8 9 9 9 9 9 7 9 9 11 12 16 11 11 15 18 13 11 11 9 6 5 5 6 8 6 3 11 13 6 9 10 10 8 6
7 4 4 5 9 6 7 6 8 7 6 5 3 3 3 5 6 7 7 8 8 9 9 9 9 7 4 6 7 10 7 8 10 10 12 12 9 7 6 8 7 6 7 10 7 7 4 7 7 8 9 9 7 7
4 3 4 5 6 9 9 8 8 6 7 3 3 5 7 4 4 3 4 7 9 8 8 8 8 8 6 4 4 5 5 3 5 7 6 4 1 4 6 8 7 6 7 10 7 7 9 10 11 12 11 11 10 8
3 5 3 5 9 8 10 5 3 1 1 2 2 3 4 3 3 3 4 9 12 12 12 10 7 7 6 6 6 6 6 3 2 3 5 5 5 7 6 7 7 7 7 6 7 8 13 13 11 12 12 12 11 8
4 6 6 5 5 6 5 3 2 2 3 3 3 4 3 5 4 4 6 7 9 8 9 9 7 6 7 8 8 4 3 3 3 4 4 7 9 8 7 5 6 8 9 9 9 11 11 11 10 11 10 10 9 8
Wind_Direction
205 204 203 202 211 218 243 254 274 333 10 1 0 360 359 355 349 332 78 7 312 277 105 256 283 259 219 250 252 79 210 202 244 239 256 253 253 261 265 283 223 224 244 347 253 294 285 64 106 242 283 319 300 297
206 208 207 204 204 213 223 222 241 293 343 5 2 2 3 355 346 342 241 127 318 269 39 351 326 351 338 7 315 145 354 316 8 262 234 255 265 265 272 270 237 249 207 278 303 202 12 68 292 316 266 281 295 303
210 208 208 208 210 202 212 212 227 261 300 337 358 356 1 357 346 343 339 0 236 271 231 207 218 173 241 240 311 288 200 26 195 334 316 303 275 290 277 273 272 269 260 254 266 269 285 285 280 248 263 262 270 302
208 213 205 207 210 210 209 212 227 204 275 314 337 346 350 349 337 327 300 23 280 307 278 116 144 222 190 240 235 241 289 285 297 268 275 272 268 256 273 294 288 293 331 224 244 270 276 286 324 8 279 227 243 287
220 218 199 205 204 209 212 210 176 196 249 289 318 353 335 333 325 293 279 6 12 306 324 89 162 207 208 226 241 229 234 248 257 240 235 250 266 280 280 282 279 285 280 279 277 314 332 306 352 351 329 322 302 291
179 168 182 202 193 200 199 182 174 193 224 276 316 346 336 321 324 262 209 147 5 300 271 236 99 187 199 210 220 224 216 226 242 253 250 260 271 279 269 256 265 285 266 273 292 287 293 297 289 289 289 285 277 291
188 189 183 177 169 166 172 181 191 200 217 243 284 315 332 315 291 302 4 23 340 298 245 237 200 169 201 199 205 213 204 243 245 257 246 264 262 204 257 265 276 286 295 292 294 299 289 281 287 296 297 292 290 285
183 194 191 186 182 176 177 185 196 195 205 240 275 302 303 294 277 234 118 214 300 268 255 261 172 184 179 208 199 209 209 200 224 241 255 240 242 238 252 262 274 266 270 276 268 270 277 282 286 289 289 288 285 275
211 204 185 175 176 179 183 191 188 192 199 244 287 287 249 230 222 70 81 267 257 300 288 231 225 181 170 234 217 158 247 217 214 224 231 241 234 234 250 239 254 295 323 320 310 298 298 303 297 300 303 298 286 281
176 170 200 175 172 166 171 164 185 186 201 238 246 219 171 70 120 158 155 208 208 207 222 259 259 187 213 184 195 233 169 239 238 213 222 232 244 255 249 262 318 298 305 301 294 293 310 314 307 307 304 296 293 297
186 174 172 175 174 171 172 172 172 172 203 221 220 55 76 82 234 233 198 219 195 231 213 228 253 217 176 231 235 189 280 252 237 236 218 241 242 198 142 187 330 311 301 302 298 295 293 294 300 307 307 302 296 293
167 166 206 195 183 186 184 186 169 208 315 23 3 71 159 217 222 175 221 211 220 234 166 206 185 230 105 340 274 133 247 238 247 115 224 239 122 116 125 83 318 312 307 309 309 305 306 300 298 304 312 313 302 293
170 159 167 185 189 193 195 175 183 108 169 182 229 178 202 186 187 210 195 201 207 193 145 157 143 174 110 239 222 225 222 241 234 234 235 276 115 130 99 350 322 311 324 320 318 316 312 307 296 310 313 315 306 292
170 175 195 207 205 201 184 164 176 203 245 209 173 156 227 181 236 199 246 241 88 152 158 188 141 172 220 193 220 211 226 274 228 209 211 237 167 114 139 10 328 338 335 325 322 323 318 315 310 306 312 319 319 297
120 108 107 168 189 189 167 161 188 218 230 193 213 218 208 241 296 344 38 296 116 58 206 180 172 202 196 214 210 232 195 230 203 234 209 115 113 114 58 357 338 335 331 329 323 321 320 316 311 301 309 321 305 291
145 164 153 124 121 146 156 172 200 213 214 209 240 251 246 295 244 211 207 205 201 218 220 255 218 222 204 229 209 206 222 239 205 204 122 133 123 93 6 326 345 335 334 324 324 330 324 316 310 307 301 304 294 270
172 187 154 129 113 118 87 245 179 207 238 276 231 234 284 316 297 280 227 171 215 222 207 217 242 214 252 241 233 240 241 273 62 87 94 84 110 327 309 341 344 344 331 327 329 334 322 314 310 292 282 302 283 173
199 135 134 135 118 114 219 245 211 169 218 234 239 223 218 255 285 240 191 194 205 225 237 225 292 232 245 229 227 233 262 285 168 220 193 123 168 280 288 323 320 329 323 328 328 333 324 328 323 317 310 196 106 110
121 133 145 149 165 159 184 163 213 235 228 244 233 242 252 250 230 253 264 216 209 259 235 223 237 239 240 261 281 282 247 259 285 63 322 316 268 252 270 292 303 307 323 307 323 340 328 327 341 354 88 152 146 112
110 136 154 181 232 227 165 157 243 251 273 46 279 264 254 246 236 224 228 233 226 223 234 237 246 249 257 258 255 254 265 280 250 266 264 257 265 282 294 309 318 320 290 304 312 315 334 315 324 304 153 135 137 118
128 107 146 224 241 268 293 159 216 275 331 294 289 265 258 228 227 236 238 226 222 229 234 235 245 252 260 269 274 274 275 277 278 280 288 295 297 298 305 304 298 285 296 303 314 329 322 303 314 187 155 131 115 107
91 79 77 241 272 237 253 231 275 300 253 261 275 239 253 255 241 232 228 228 234 236 239 246 249 259 257 249 246 245 254 262 267 274 280 277 269 266 261 267 276 297 294 295 309 333 327 311 210 162 135 125 125 127
125 155 215 192 217 186 265 355 258 274 250 239 245 265 270 261 248 247 248 256 253 244 244 249 249 250 259 265 268 265 254 246 249 252 254 253 256 261 261 261 261 270 280 287 347 354 74 161 89 111 102 121 151 155
215 179 186 201 216 238 95 225 234 271 282 267 259 268 280 282 280 261 261 258 263 269 270 259 241 240 242 242 246 250 246 241 247 251 249 253 255 257 261 260 255 254 267 295 3 129 152 133 93 12 180 160 179 196
174 205 158 223 216 236 233 227 190 214 253 264 282 273 266 292 285 280 272 274 273 277 320 338 332 325 313 286 283 269 244 235 244 245 240 239 244 246 251 249 248 251 258 186 177 156 161 151 169 248 221 199 209 173
250 193 200 217 178 219 228 280 291 276 298 309 279 293 327 281 260 261 268 340 3 0 2 324 308 306 299 294 289 287 288 287 249 230 236 237 231 235 238 237 240 239 155 158 155 159 161 174 185 209 244 244 104 147
256 228 195 231 298 305 280 275 278 285 280 268 271 291 247 242 254 311 27 27 339 298 290 286 276 264 268 272 266 268 282 267 264 260 240 226 238 235 235 233 234 238 139 155 157 163 174 188 182 195 218 233 173 197
246 286 276 279 247 248 275 294 307 287 275 257 262 228 246 239 262 332 316 289 275 278 274 272 271 261 253 248 254 256 254 245 245 220 234 242 224 233 228 231 222 118 150 172 173 169 185 203 197 189 201 197 190 196
254 267 272 278 279 282 271 254 224 248 268 104 232 243 251 255 289 282 300 315 312 301 288 283 274 248 236 229 245 247 241 225 210 199 214 222 218 215 218 179 139 167 162 158 139 163 218 224 198 229 177 179 177 163
273 260 285 314 288 256 237 217 253 279 288 244 209 249 273 281 295 302 308 311 310 305 292 271 252 256 242 211 242 264 228 216 217 209 205 220 228 203 184 134 160 162 165 154 155 176 157 171 139 154 178 156 162 163
293 296 268 253 265 274 280 291 288 279 284 353 58 323 301 290 297 283 310 310 313 316 337 343 318 252 235 205 240 261 199 227 276 285 318 306 50 136 142 144 150 142 148 150 168 179 170 167 171 167 161 169 155 167
247 237 273 280 290 298 305 282 299 277 334 66 54 315 293 287 293 292 313 335 342 343 339 330 321 339 53 66 61 51 37 39 356 327 292 246 142 132 135 137 142 147 139 178 175 171 173 170 160 164 169 159 165 166
236 249 246 267 267 257 293 348 273 237 118 61 27 336 330 321 330 316 313 330 321 313 312 303 301 71 71 62 75 90 90 73 35 7 18 49 105 121 134 146 148 140 160 169 166 169 165 155 154 149 144 152 150 137